Location: Cabri�res
(43.7840°N, 5.4986°E)
Time: 04:06:53
(UTC+00:00)

Cosmos 2082 Rocket - Pass Details

Date: 09 April 2020
Orbit: 831 x 855 km, 71.0° (Epoch: 02 June)

Event Time Altitude Azimuth Distance (km) Brightness Sun altitude
Exits shadow 20:33:33 11° 56° (ENE) 2,358 4.3 -23.3°
Drops below altitude 10° 20:33:56 10° 53° (NE) 2,461 4.5 -23.4°
Sets 20:36:56 0° 39° (NE) 3,405 5.4 -23.8°
